Regional Weather Roundup
Issued by NWS Newport/Morehead, NC

Current Version | Previous Version | Graphics & Text | Print | Product List | Glossary Off
Versions: 1 2 3 4 5 6 7 8 9 10 11 12 13 14 15 16 17 18 19 20 21 22 23 24 25 26 27 28 29 30 31 32 33 34 35 36 37 38 39 40 41 42 43 44 45 46 47 48 49 50

651
ASUS42 KMHX 230613
RWRMHX
WEATHER ROUNDUP FOR EASTERN NORTH CAROLINA
NATIONAL WEATHER SERVICE NEWPORT/MOREHEAD CITY NC
200 AM EDT SUN JUL 23 2017

NOTE: "FAIR" INDICATES FEW OR NO CLOUDS BELOW 12,000 FEET
WITH NO SIGNIFICANT WEATHER AND/OR OBSTRUCTIONS TO VISIBILITY

NCZ015>017-031-032-045>047-102-103-230700-
NORTH COAST

CITY           SKY/WX    TMP DP  RH WIND       PRES   REMARKS
EDENTON        CLEAR     83  75  78 SW12G18   29.87F
ELIZABETH CITY CLEAR     80  77  90 SW10      29.84F
KITTY HAWK     PTCLDY    81  74  79 SW12G17   29.85F
MANTEO         PTCLDY    81  75  83 W16       29.87S

$$

NCZ045>047-081-094-103-104-230700-
CENTRAL COAST

CITY           SKY/WX    TMP DP  RH WIND       PRES   REMARKS
FRISCO         CLEAR     77  74  90 SW12      29.90F

$$

NCZ095-097-098-100-101-230700-
SOUTHERN COAST

CITY           SKY/WX    TMP DP  RH WIND       PRES   REMARKS
BEAUFORT       CLEAR     82  80  94 SW17      29.90F
CEDAR ISLAND   NOT AVBL
JACKSONVILLE   CLEAR     78  75  90 SW6       29.90S
PINEY ISLAND   CLEAR    N/A N/A N/A SW15G22   29.90S
WILMINGTON     CLEAR     79  76  90 SW9       29.92F


$$

NCZ011>013-027>030-043-044-078>080-089-090>093-098-230700-
COASTAL PLAIN

CITY           SKY/WX    TMP DP  RH WIND       PRES   REMARKS
AHOSKIE          N/A     80  75  86 S5        29.84F
CLINTON        CLEAR     78  77  96 CALM      29.91S
ELIZABETHTOWN  NOT AVBL
GOLDSBORO      NOT AVBL
GREENVILLE     CLEAR     81  73  78 SW10      29.90F
HAVELOCK       CLEAR     80  75  84 SW12      29.91S
KENANSVILLE    CLEAR     77  75  94 CALM      29.91S
KINSTON        CLEAR     78  74  87 SW7       29.90F
NEW BERN       CLEAR     78  75  90 SW6       29.91S
RICHLANDS      CLEAR     77  74  90 SW7       29.92R
ROCKY MOUNT    CLEAR     81  76  84 SW10      29.86F
WASHINGTON     CLEAR     78  73  85 SW9       29.89S
WHITEVILLE     CLEAR     78  73  85 SW6       29.92F

$$

AMZ130-135-150-152-154-156-158-170-250-252-270-ANZ085-086-088-633-658-670-230700-
MARINE OBSERVATIONS

STATION/POSITION TIME  TEMP    WIND        PRES    WAVE   SWELL
                       AIR SEA DIR/SP/G            HT/PER HT/PER
                 (UTC) (F)     (DEG/KT/KT) (MB)    (FT/S) (FT/S)
CHESAPEAKE LIGHT NOT AVBL
64 E VA BEACH    0550   81 80  230/ 21/ 25 1010.1    5/ 6   2/ 9
DUCK             0548      60  230/ 15/ 21 1010.6
2 E DUCK         0600      62                N/A     2/11
OREGON INLET     0542      85  220/ 19/ 25 1011.2
13E OREGON INLT  0548      79                N/A     4/ 6   2/10
HATTERAS CG      0548      76  230/  9/ 14 1012.3
DIAMOND BUOY     0550   83 83  240/ 21/ 25 1012.1    5/ 5   2/ 9
CAPE LOOKOUT     0600   81     220/ 12/ 17 1012.5
BEAUFORT LAB     0548      80  230/  5/ 11 1012.2
30 SE NEW RVR IN 0508   81 81  240/ 17/ 21 1013.6
30 SE NEW RVR IN 0543      81                N/A     5/ 5
27 SE WRIGHTSVLE 0508   82 82  220/ 16/ 21 1013.8
5 SE WRIGHTSVLE  0508   80 78  220/ 10/ 17 1013.7
225 S CAPE HAT   0550   83 83  220/ 16/ 17 1016.9    4/ 9   3/ 9
41 SE CHARLESTON 0550   82 84  220/ 17/ 21 1014.0    5/ 5   2/ 9

$$




USA.gov is the U.S. government's official web portal to all federal, state and local government web resources and services.